Weather in Hirnyk

Ukraine / Donetsk Region     48°03′18″N   37°22′13″E
temp.,
°C
wind,
m/s
gust,
m/s
humid.,
%
clouds,
%
prec.,
mm/h
press.,
hPa
HPBL,
m
3 march, wed
wed323:00+1wnw71192100 0.2 1017698
02:00+1wnw61196100 1.2 1016625
05:00+1nnw81294100 0.8 1017814
08:00+1nnw71075100 0.8 10191077
11:00+2nnw797393 0.1 10211078
14:00+3nnw796695 0.3 10221177
17:00+2nw486879 0.1 1023882
20:000nw387540 0.1 1025207
4 march, thu
thu423:00−1w33790 0.0 102583
02:00−1wsw35810 0.0 1025133
05:00−1wsw49850 0.0 1023270
08:00+1wsw610740 0.0 1022523
11:00+6wsw7105531 0.0 10201000
14:00+8sw8125415 0.0 10171264
17:00+6sw613670 0.0 1015467
20:00+5sw8167637 0.0 1014642
5 march, fri
fri523:00+3sw7158467 0.0 1013652
02:00+2sw8168764 0.0 1013630
05:00+3sw7138999 0.0 1012534
08:00+3wsw71092100 0.0 1013468
11:00+5sw5888100 0.3 1012462
14:00+8ssw6877100 0.4 1011806
17:00+7ssw51173100 0.0 1009452
20:00+6ssw71477100 0.0 1010442
6 march, sat
sat623:00+6sw61186100 0.0 1010349
02:00+4nw4794100 0.4 1012381
05:00+2nnw5792100 0.8 1013421
08:00+1nnw578099 0.8 1015605
11:00+1nnw5666100 0.0 1017950
14:00+3nnw5748100 0.0 10171456
17:00+2nnw4652100 0.0 1018915
20:00−1nnw61162100 0.1 1021811
7 march, sun
sun723:00−3nw594964 0.0 1023949
02:00−3nw585231 0.0 10241116
05:00−4nw58510 0.0 10241067
08:00−3wnw57490 0.0 10251098
11:000w68410 0.0 10241342
14:00+2w710380 0.0 10221427
17:000wsw611500 0.0 1019653
20:00−2wsw714520 0.0 1019550